Theta_e
279 279 279 279 278 278 278 278 278 279 279 279 279 279 279 279 279 279 280 280 280 281 282 283 283 284 285 287 288 289 289 289 289 289 289 289 289 288 288 288 287 287 287 287 287 287 287 287 287 287 287 288 288 288 288 288 289 289 289 289 289 289 289 288 289 289 289 290 289 287 286 285 285 285 284 284 284 284 284 284 284 284 284 284 283
279 279 279 278 278 278 278 278 278 278 278 278 278 278 278 278 278 278 278 279 279 279 280 281 282 283 284 285 286 287 288 288 288 288 288 288 288 287 287 287 287 287 287 287 287 287 287 287 287 287 287 287 287 287 288 288 288 288 288 288 288 288 288 288 287 287 287 288 289 287 286 285 285 285 284 284 284 284 283 283 283 283 283 283 283
279 279 278 278 278 278 277 277 277 278 278 278 278 278 278 278 278 278 277 277 278 278 279 279 280 281 283 284 285 286 286 287 288 288 288 288 287 287 287 287 287 287 287 287 287 287 287 287 287 287 287 287 287 287 287 287 287 287 287 287 287 287 287 287 287 286 286 286 287 287 286 285 284 284 284 284 283 283 283 283 283 283 283 283 283
279 278 278 278 277 277 277 277 277 277 277 277 277 277 277 277 277 277 277 277 277 277 277 278 279 280 281 282 283 284 285 286 286 287 287 287 287 287 287 287 287 287 287 287 287 287 287 286 286 286 286 286 286 286 286 286 286 286 286 286 286 286 286 286 286 286 285 285 286 286 286 285 283 283 283 283 282 282 282 282 282 282 282 282 282
278 278 278 277 277 277 277 277 277 277 277 276 276 276 276 276 276 276 276 276 276 276 276 277 277 278 279 280 281 282 283 284 285 286 286 286 287 287 287 287 287 287 287 287 287 287 286 286 286 286 286 286 285 285 285 286 285 285 285 285 285 285 285 285 285 285 284 284 284 285 285 285 283 282 282 282 281 281 281 282 282 282 281 281 281
278 278 278 277 277 277 277 276 276 276 276 276 276 276 276 276 275 275 275 275 275 276 276 276 276 276 277 278 279 280 281 283 284 284 285 285 286 286 286 286 286 286 286 286 286 286 286 286 285 285 285 285 285 285 285 285 285 285 284 284 284 284 284 284 284 284 283 283 283 284 284 284 283 281 281 281 281 280 280 280 281 281 280 280 280
277 277 277 277 277 276 276 276 276 276 276 275 275 275 275 275 275 274 275 275 275 275 275 275 275 275 276 277 277 278 279 281 282 283 284 284 285 285 285 285 285 285 285 286 286 285 285 285 285 285 285 285 285 284 284 284 284 284 284 284 284 283 283 283 283 283 283 282 282 282 283 283 283 282 282 281 281 280 280 280 279 280 280 279 279
277 277 277 277 276 276 276 276 275 275 275 275 275 274 274 274 274 274 274 274 274 274 274 274 275 275 275 275 276 277 278 279 280 281 282 283 284 284 284 284 284 285 285 285 285 285 285 285 284 284 284 284 284 284 284 284 283 283 283 283 283 283 282 282 282 282 282 281 281 281 281 282 282 282 282 281 280 279 279 279 279 279 279 279 279
277 277 276 276 276 276 276 275 275 275 275 274 274 274 273 273 273 273 273 273 273 273 273 274 274 274 274 274 275 276 277 278 279 280 281 282 282 283 283 284 284 284 284 284 284 284 284 284 284 284 284 284 283 283 283 283 283 283 282 282 282 282 282 281 281 281 281 281 281 281 281 281 281 281 282 281 279 279 279 279 279 279 279 279 278
277 276 276 276 276 276 276 275 275 274 274 274 274 273 273 273 273 273 273 272 272 272 273 273 273 273 274 274 274 275 276 277 278 279 280 280 281 281 282 282 283 283 283 283 283 283 283 284 283 283 283 283 283 283 283 283 283 283 282 282 282 281 281 281 280 280 280 280 280 280 280 280 280 281 281 281 280 279 278 279 278 278 278 277 277
276 276 276 276 276 276 275 275 275 274 274 274 273 273 272 272 272 272 272 272 272 272 272 272 273 273 273 273 273 274 275 276 277 279 279 280 281 281 281 281 281 282 282 283 283 283 283 283 283 283 283 283 283 283 283 282 282 282 282 282 282 281 281 280 280 280 280 280 280 280 280 280 280 280 280 280 280 279 278 278 278 278 277 276 276
276 276 275 275 275 275 275 275 274 274 274 273 273 272 272 272 271 271 271 271 271 271 271 272 272 272 273 273 273 273 274 275 277 278 279 280 280 280 280 280 280 280 280 281 281 282 282 282 282 282 282 282 282 282 282 282 282 282 281 281 281 281 281 280 280 280 280 279 279 279 279 279 279 279 280 280 279 279 278 277 277 277 277 276 276
276 276 275 275 275 275 275 275 274 274 274 273 273 272 271 271 271 271 270 270 270 270 271 271 272 272 272 272 272 273 274 275 276 278 278 278 278 279 279 279 280 279 279 279 279 280 280 280 280 281 280 280 280 281 281 281 281 281 281 281 281 280 280 280 280 280 280 279 279 279 279 279 279 279 279 279 279 278 277 276 276 276 276 276 276
276 275 275 275 275 274 274 274 274 274 273 273 272 272 271 271 270 270 270 270 270 270 270 271 271 271 272 272 272 272 273 274 276 277 277 277 277 277 277 278 278 279 279 279 279 279 279 279 279 279 279 279 279 280 280 280 280 281 281 281 280 280 280 280 280 280 279 279 279 279 279 279 279 279 279 279 279 278 277 276 276 276 276 276 276
275 275 275 274 274 274 274 274 273 273 273 273 272 271 271 270 270 270 269 269 269 270 270 270 270 271 271 271 271 271 272 273 275 276 276 276 276 275 276 276 277 277 277 277 277 278 278 278 278 278 278 278 278 278 279 279 279 280 280 280 280 280 280 280 280 279 279 279 279 279 278 278 278 278 278 279 279 278 278 277 276 276 275 275 275
275 274 274 274 274 274 273 273 273 272 272 272 271 271 270 270 269 269 269 269 269 269 269 270 270 270 270 271 271 271 271 272 274 275 275 275 275 274 274 275 275 275 275 276 276 276 277 277 277 277 277 277 277 277 278 278 278 278 279 279 279 279 279 279 279 279 279 279 279 278 278 278 278 278 278 278 278 278 277 277 276 275 275 274 274
274 274 274 273 273 273 273 273 272 271 271 271 270 270 270 269 269 268 268 268 268 268 269 269 269 269 270 270 270 270 270 271 272 274 274 274 274 274 274 274 274 274 274 274 275 275 275 276 276 276 276 276 276 276 277 277 277 277 277 278 278 278 278 279 279 279 279 279 279 278 278 278 278 277 278 277 277 277 277 276 275 275 274 274 273
274 273 273 273 273 272 272 272 271 271 270 270 270 269 269 268 268 267 267 267 267 268 268 269 269 269 269 270 270 270 270 270 271 272 273 273 273 273 273 273 273 273 273 273 274 274 274 274 275 275 275 275 275 276 276 277 276 276 276 276 277 277 277 277 277 278 278 278 278 278 278 278 278 277 278 277 277 277 276 276 275 275 274 273 273
274 273 273 272 272 272 272 271 271 270 269 269 269 269 268 268 267 267 266 266 267 267 268 268 268 269 269 269 269 269 269 269 269 270 271 272 273 272 272 272 272 272 273 273 273 273 272 273 273 274 274 274 274 275 276 276 276 275 276 276 276 276 276 276 276 276 277 277 277 277 277 277 277 277 277 277 277 277 276 276 276 275 274 273 273
273 273 272 272 271 272 271 271 270 269 269 269 269 268 267 267 266 266 265 266 266 267 267 267 268 268 268 269 269 268 268 268 268 269 270 271 272 272 272 272 272 271 272 272 272 272 272 272 272 272 272 273 273 274 275 275 275 275 275 275 275 275 275 275 275 275 275 276 276 276 276 276 276 276 276 277 277 277 276 276 275 275 274 274 273
273 272 271 271 271 271 271 270 269 269 268 268 268 267 267 266 265 265 265 265 266 266 267 267 267 267 267 267 268 268 268 268 268 268 269 270 271 271 271 271 271 271 271 271 271 271 271 271 271 271 271 271 272 272 273 273 274 274 274 274 274 275 275 275 275 274 274 274 274 274 274 274 274 275 275 275 275 275 275 275 275 275 274 274 273
271 270 270 270 270 270 269 269 268 268 268 267 267 266 265 265 264 264 264 265 266 266 266 266 266 266 266 266 267 268 268 268 267 267 268 269 270 270 270 270 270 270 270 270 270 270 270 270 270 270 270 270 271 271 272 272 272 273 273 274 274 274 275 274 274 274 274 273 273 273 273 273 273 273 273 273 274 274 274 274 274 274 274 273 273
270 270 270 270 270 269 268 268 268 267 267 267 266 265 265 264 264 263 264 265 265 266 266 266 266 266 266 266 267 267 268 267 266 266 267 268 269 270 270 270 270 270 269 269 270 270 269 269 269 269 269 270 271 271 271 272 272 272 273 273 273 273 274 273 273 273 273 273 273 273 273 273 273 272 273 273 273 273 272 272 272 273 273 273 273
269 269 270 269 268 267 267 267 267 267 266 266 265 265 264 263 263 263 263 264 265 265 266 266 266 267 267 267 267 267 267 267 266 265 266 267 269 269 270 270 270 269 269 269 269 269 269 269 269 269 270 270 271 271 271 271 271 271 272 272 272 272 272 272 272 272 272 272 272 272 272 272 272 272 272 272 272 272 272 271 271 271 271 271 272
269 269 269 268 267 267 267 266 266 266 266 265 265 264 263 263 263 263 264 264 264 265 266 266 266 267 267 267 267 267 267 266 266 266 265 267 268 269 269 269 269 268 268 268 268 268 268 268 269 269 269 269 269 269 269 270 270 270 270 270 270 270 270 270 270 270 271 271 271 271 271 271 271 271 271 271 271 271 271 270 270 270 270 269 269
268 268 268 267 267 266 266 266 266 266 265 265 264 264 263 263 263 263 263 264 264 265 265 265 266 266 267 267 267 267 267 266 266 266 266 266 267 268 268 267 267 267 267 267 267 267 268 268 267 267 267 268 268 268 268 268 268 269 269 269 269 269 269 269 269 269 270 270 270 270 270 270 270 270 270 270 270 270 269 269 269 268 268 268 268
268 268 267 267 266 266 266 266 266 266 265 264 264 263 263 263 263 263 263 263 264 264 265 265 266 266 266 266 267 267 267 266 266 266 266 266 267 267 267 267 267 266 266 266 266 266 267 266 266 266 266 266 266 266 266 266 267 267 267 267 267 267 268 268 268 268 268 269 269 269 269 268 268 269 269 269 269 268 268 267 267 267 267 267 267
267 267 267 266 266 266 266 266 265 265 264 264 263 263 263 263 263 263 263 263 264 264 265 265 265 266 266 266 267 267 267 267 267 267 266 266 267 267 266 266 266 266 266 266 266 266 266 265 265 265 265 266 266 266 266 266 266 266 266 266 266 266 266 266 267 267 267 267 268 268 267 267 267 267 267 267 267 266 266 266 266 266 266 266 266
266 266 266 266 266 265 266 265 265 264 264 263 263 263 263 263 263 262 262 263 263 263 264 264 265 266 266 266 266 266 266 267 267 267 267 267 267 267 267 266 266 266 266 266 266 265 265 265 265 265 265 265 265 265 266 266 266 265 265 265 265 265 265 265 265 265 266 266 266 266 266 266 266 265 265 265 265 265 265 265 265 265 265 265 264
265 265 265 265 265 265 265 265 264 264 263 263 263 262 262 262 262 263 263 262 263 263 264 264 265 265 266 266 266 266 266 266 266 266 267 267 267 267 267 267 266 266 266 266 266 265 265 265 265 265 265 265 265 265 266 266 266 265 265 265 264 264 264 264 264 264 265 265 265 265 265 265 265 264 264 264 264 264 264 264 264 263 263 263 263
264 264 265 265 265 264 264 264 263 263 263 263 262 262 262 262 262 263 263 263 263 264 264 265 266 266 266 266 266 266 266 266 266 266 266 266 266 266 266 266 266 266 266 266 265 265 265 265 265 265 265 265 265 265 265 265 265 265 264 264 264 264 264 263 263 263 264 264 264 263 263 263 263 263 263 263 263 263 263 262 262 262 262 262 262
263 263 264 264 264 264 263 263 263 263 262 262 262 262 262 261 261 262 263 264 264 264 264 265 266 266 266 266 265 265 265 265 265 265 265 266 265 265 265 265 265 266 266 265 265 265 265 265 265 265 265 265 264 264 264 264 264 264 264 263 263 263 263 263 262 262 262 262 262 262 262 262 262 262 262 262 262 262 261 261 261 261 261 261 261
263 263 263 263 263 263 263 263 263 263 262 262 262 261 261 261 261 261 262 263 264 264 264 265 265 265 265 265 265 265 265 264 264 264 264 264 264 264 264 265 265 265 265 264 264 264 264 264 264 264 264 264 264 263 263 263 263 263 263 262 262 262 262 262 262 261 261 261 261 261 261 261 261 261 260 260 260 260 260 260 260 260 259 259 259
262 263 263 263 263 262 262 262 262 263 262 262 262 261 261 261 261 260 261 261 262 263 263 264 263 263 263 264 264 264 264 264 264 263 263 263 263 264 264 264 264 264 264 263 263 263 263 263 263 263 263 263 263 262 262 262 262 262 262 261 261 261 261 261 260 260 260 260 260 260 259 259 259 259 259 259 259 259 259 258 258 258 258 258 258
262 262 262 262 263 262 262 262 262 262 262 262 262 261 261 261 260 260 260 260 260 261 262 262 262 262 262 262 262 262 262 262 262 262 262 263 263 264 264 263 263 263 263 263 262 262 262 262 262 262 262 262 262 261 261 261 261 261 261 260 260 260 259 259 259 259 259 259 259 258 258 258 258 258 258 258 258 257 257 257 257 257 257 256 256
262 262 262 262 262 262 262 262 262 262 262 262 261 261 260 260 260 260 260 260 260 260 261 261 261 261 261 261 261 261 261 261 261 261 262 262 262 262 262 262 262 262 262 261 261 261 261 261 261 261 261 261 261 260 260 260 260 260 260 259 259 259 258 258 258 258 257 257 257 257 257 257 257 257 257 257 256 256 256 256 256 256 255 255 255
262 262 262 262 262 262 262 261 261 261 261 261 261 260 260 259 259 259 259 259 259 260 260 260 260 260 260 260 260 260 260 260 260 260 261 261 261 261 261 261 261 261 261 261 260 260 260 260 259 260 260 260 259 259 259 259 259 259 259 258 258 258 258 257 257 257 257 256 256 256 256 256 256 256 255 255 255 255 255 255 255 254 254 254 254
261 262 262 262 262 262 261 261 261 260 260 260 260 260 259 259 259 259 259 259 259 259 260 260 260 260 260 259 259 259 259 259 260 260 260 260 260 260 260 260 260 260 260 260 259 259 259 258 258 258 258 258 258 258 258 258 258 258 258 257 257 257 257 257 256 256 256 255 255 255 255 255 255 255 254 254 254 254 254 254 254 253 253 253 253
261 261 262 262 262 262 261 261 260 260 260 260 260 260 259 259 259 259 259 259 259 259 259 259 259 259 260 259 259 259 258 259 259 259 259 259 258 258 258 258 259 259 259 259 258 258 258 257 257 257 257 257 257 257 257 257 257 257 257 256 256 256 256 256 255 255 255 254 254 254 253 253 253 253 253 253 253 253 253 253 253 253 252 252 252
260 260 261 261 261 261 261 261 260 260 260 259 259 259 259 259 259 259 259 259 259 259 259 259 259 259 259 259 259 258 258 258 258 258 258 258 257 257 257 257 258 258 257 258 258 257 257 257 256 256 256 256 256 256 256 256 256 256 256 255 255 255 255 255 255 254 254 253 253 253 253 252 252 252 252 252 252 252 252 252 252 252 251 251 251
259 259 259 260 260 260 260 260 260 260 259 259 259 259 259 259 259 259 259 259 259 259 259 259 259 259 259 259 259 258 258 258 258 258 258 258 257 257 257 257 257 257 257 257 256 256 256 256 255 255 255 255 255 255 255 255 255 255 255 255 254 254 254 254 253 253 253 253 253 252 252 252 252 252 252 251 251 251 251 251 251 251 251 251 251
258 258 258 258 259 259 260 260 260 260 259 259 259 259 259 259 259 259 259 259 259 259 259 259 259 259 259 259 258 258 258 258 258 258 258 257 257 257 256 256 256 256 256 256 256 255 255 255 255 255 255 255 255 254 254 254 254 254 254 254 254 254 253 253 253 253 253 252 252 252 252 251 251 251 251 251 251 251 251 250 250 250 250 250 250
257 257 257 257 258 259 259 259 259 259 259 259 259 259 259 259 259 259 259 259 258 258 258 258 258 259 259 259 258 258 257 257 257 257 257 257 257 256 256 256 255 255 255 255 255 255 255 254 254 254 254 254 254 254 254 254 254 254 254 254 253 253 253 253 252 252 252 252 251 251 251 251 251 250 250 250 250 250 250 250 250 250 250 250 250
256 256 256 256 257 258 259 259 259 259 259 258 258 258 258 258 258 258 258 258 258 258 258 258 258 258 258 258 258 258 257 256 256 256 256 256 256 256 256 255 255 255 255 255 254 254 254 254 254 254 254 254 254 253 253 253 253 253 253 253 253 253 252 252 252 252 251 251 251 251 250 250 250 250 250 250 250 250 250 250 249 249 249 249 249
255 255 255 256 256 257 258 258 258 258 258 258 258 258 258 258 258 257 257 257 257 257 257 257 258 258 258 258 258 258 257 257 256 256 256 256 256 255 255 255 254 254 254 254 254 254 254 254 254 254 254 253 253 253 253 253 253 253 252 252 252 252 252 251 251 251 251 250 250 250 250 250 250 250 249 249 249 249 249 249 249 249 249 249 249
254 254 255 255 256 257 258 258 258 258 258 258 258 257 257 257 257 257 257 257 257 257 257 257 257 257 258 258 258 257 257 257 256 256 256 256 255 255 255 254 254 254 254 254 254 253 253 253 253 253 253 253 253 253 252 252 252 252 252 252 252 251 251 251 251 250 250 250 250 250 249 249 249 249 249 249 249 249 249 249 249 249 249 249 249
254 254 254 255 256 257 257 257 257 257 257 257 257 257 257 257 257 257 257 257 257 257 257 257 257 257 257 257 257 257 256 256 256 256 256 255 255 255 255 254 254 254 254 253 253 253 253 253 253 253 253 253 252 252 252 252 252 252 251 251 251 251 251 251 250 250 250 250 249 249 249 249 249 249 249 249 249 249 249 249 249 248 248 248 248
253 254 255 256 256 256 256 256 256 256 256 256 256 256 256 257 257 257 257 257 257 257 256 256 256 256 257 257 257 257 256 256 256 256 255 255 255 255 255 254 254 254 253 253 252 252 252 252 252 252 252 252 252 252 252 252 251 251 251 251 250 250 250 250 250 250 249 249 249 249 249 249 249 249 249 249 249 248 248 248 248 248 248 248 248
253 254 255 255 255 255 255 255 255 255 255 255 255 256 256 256 256 256 256 256 256 256 256 256 256 256 256 256 256 256 256 256 256 255 255 255 255 255 254 254 253 253 253 253 252 252 252 252 252 252 252 252 252 252 251 251 251 251 250 250 250 250 250 249 249 249 249 249 249 249 249 249 249 248 248 248 248 248 248 248 248 247 247 247 247
253 254 254 254 254 254 254 254 254 254 254 254 254 255 255 255 255 256 256 256 256 256 256 255 255 255 255 256 256 256 256 256 255 255 255 255 254 254 254 253 253 253 253 253 252 252 252 252 252 252 252 252 251 251 251 251 251 250 250 250 249 249 249 249 249 249 249 249 249 249 249 248 248 248 248 248 248 247 247 247 247 247 247 247 247
253 253 253 253 253 253 253 253 253 253 253 253 253 253 254 254 254 255 255 255 255 255 255 255 255 255 255 255 255 255 255 255 255 255 255 254 254 254 254 253 253 253 252 252 252 252 251 251 251 251 251 251 251 251 251 251 250 250 250 249 249 249 249 248 248 248 248 248 248 248 248 248 248 248 248 247 247 247 247 247 247 247 247 247 247
Wind_Speed
19 18 18 19 20 21 22 22 23 23 23 24 23 23 23 24 24 24 24 23 24 24 23 22 22 21 20 18 17 19 21 23 24 26 29 31 32 32 32 31 32 32 31 31 31 32 33 34 34 34 34 33 33 33 34 34 34 33 31 31 30 28 26 23 14 10 14 18 15 14 21 27 29 32 34 34 33 33 33 34 33 34 34 35 35
21 19 19 19 20 21 22 22 22 22 22 22 23 23 23 24 24 24 24 24 23 23 23 22 21 20 20 18 17 16 18 20 21 23 25 28 29 29 30 30 31 32 31 31 32 32 32 33 33 33 33 33 32 32 33 33 32 33 32 31 30 29 27 25 19 13 12 18 19 13 15 24 28 30 33 33 33 32 33 33 33 33 34 35 35
21 20 20 20 21 22 22 22 22 21 21 21 22 23 23 23 23 23 24 24 24 23 22 22 21 20 18 17 17 15 14 16 18 20 22 24 25 25 26 28 29 30 30 30 30 31 31 31 30 30 30 31 31 31 31 31 30 30 31 31 30 28 27 25 22 17 13 16 21 18 16 21 25 27 30 32 32 31 32 32 32 33 33 34 34
21 21 21 21 21 22 22 22 22 21 21 21 21 22 23 23 23 23 24 24 25 25 23 22 22 20 19 18 17 16 14 12 14 17 20 21 22 22 23 24 25 26 27 28 27 28 29 29 29 29 29 29 30 30 29 29 29 29 29 30 29 28 26 25 24 21 17 16 19 20 18 18 21 24 27 29 30 30 31 31 31 33 33 33 33
21 21 22 21 21 22 23 22 21 20 21 22 22 22 22 23 23 23 24 24 25 24 23 23 23 21 20 19 18 17 15 13 11 12 16 18 20 21 21 22 23 23 24 24 24 25 26 27 28 27 28 28 29 29 29 28 27 28 28 28 28 26 25 25 24 21 18 17 17 18 18 16 17 21 24 27 27 27 28 29 30 32 32 31 31
21 21 22 21 21 22 22 21 20 20 20 21 21 22 22 23 23 24 24 24 24 24 23 23 24 23 21 20 19 18 17 15 12 9 10 12 16 18 19 20 22 23 23 23 23 24 24 25 27 27 28 28 28 28 28 28 27 27 27 27 26 25 24 24 23 21 20 18 17 18 20 18 16 18 21 25 26 26 26 27 28 29 30 29 29
21 21 21 20 21 22 21 20 19 20 20 20 20 21 23 23 23 24 24 24 25 24 23 23 23 22 22 20 18 18 17 16 14 12 9 8 10 13 16 17 18 20 22 23 23 24 24 24 25 26 28 28 28 28 28 28 28 28 27 27 25 25 24 23 22 22 21 19 17 18 21 21 20 18 17 20 25 27 27 26 24 26 28 28 29
22 22 21 21 21 21 20 19 20 20 20 19 19 21 23 23 24 24 24 24 25 24 24 23 22 21 21 20 19 17 16 15 13 12 11 10 9 10 11 13 14 15 17 19 20 21 22 23 23 24 26 26 27 28 28 28 28 28 27 27 26 25 25 23 22 22 21 20 19 18 19 20 22 21 17 18 22 25 27 28 26 26 27 27 27
21 21 21 21 21 20 20 20 21 21 20 19 19 21 23 23 24 23 24 25 25 24 24 23 22 21 21 20 18 16 15 13 11 11 11 11 11 11 11 11 12 12 13 15 16 18 19 19 20 21 22 23 24 25 27 28 28 28 27 27 26 26 25 24 22 22 21 19 19 18 17 18 22 22 20 21 23 23 24 26 26 26 26 27 27
20 21 21 21 21 21 21 20 21 21 20 19 19 21 23 23 23 23 24 25 25 25 25 23 22 22 21 20 19 16 14 12 11 11 12 11 10 10 10 12 13 13 13 14 15 16 17 18 19 20 20 21 22 23 25 26 27 28 28 28 28 27 26 24 23 23 21 19 19 19 17 18 21 22 23 24 23 22 22 24 23 22 22 22 23
19 20 21 21 21 22 21 20 20 20 20 20 20 21 22 23 23 24 25 25 26 25 25 24 24 22 20 20 19 15 13 11 11 13 12 11 10 9 9 9 10 12 13 14 14 14 15 16 18 19 19 19 20 21 23 24 25 26 26 27 28 29 28 26 25 24 22 20 20 19 18 19 21 22 23 23 21 21 23 24 22 21 20 18 15
19 20 21 21 21 22 21 20 20 20 21 21 20 20 21 22 24 25 26 26 26 26 26 25 24 22 20 20 19 15 12 10 11 12 9 7 5 5 5 6 7 9 10 11 11 11 12 12 13 15 15 16 17 19 21 22 23 24 25 25 26 28 29 29 27 25 24 22 20 20 21 21 20 21 23 22 21 21 22 24 24 23 21 19 16
18 19 21 21 22 22 22 20 20 21 22 21 19 19 21 23 24 25 27 27 26 26 26 25 24 22 20 20 19 16 12 9 10 10 7 8 6 3 2 2 4 5 6 7 8 9 9 9 9 10 12 12 13 15 18 19 19 20 21 23 25 26 27 28 27 27 26 24 22 22 22 21 20 21 22 22 22 21 21 22 23 23 22 21 20
19 19 20 22 22 22 22 21 21 22 22 21 20 20 22 24 25 26 27 27 26 25 24 24 23 22 20 20 20 17 12 9 9 9 7 7 7 7 6 3 1 3 5 6 6 6 7 8 7 7 8 9 11 13 15 16 17 18 19 20 23 24 25 26 26 26 26 25 24 23 22 20 20 20 20 21 21 22 23 23 22 23 23 23 23
19 20 21 22 22 22 21 22 22 21 21 21 22 23 25 26 26 25 26 26 25 24 24 24 23 22 21 20 20 18 13 9 8 7 6 5 5 5 6 4 1 1 2 4 5 5 6 7 7 6 6 7 8 11 13 14 15 17 18 19 20 21 22 23 25 25 25 25 25 23 21 20 19 19 18 19 20 22 22 22 22 23 22 22 21
18 19 21 23 24 23 22 22 21 20 20 22 24 26 27 27 25 24 25 26 25 24 24 23 22 22 21 19 19 18 12 8 7 6 4 4 2 3 4 3 2 1 2 2 2 4 5 6 7 6 6 6 6 6 8 11 13 15 16 17 18 17 18 19 20 21 22 23 23 22 21 20 19 19 19 19 19 19 18 18 20 20 19 17 17
17 18 21 23 25 25 24 22 20 19 21 24 25 25 26 25 24 24 25 26 25 23 22 22 21 21 21 19 19 18 12 8 7 6 4 3 1 1 1 2 2 2 3 3 2 3 3 4 6 5 5 5 5 5 5 7 10 12 13 14 14 14 15 15 15 16 16 17 19 19 20 20 19 19 19 19 20 21 19 18 19 19 17 14 13
19 19 21 23 24 25 26 23 20 19 22 24 25 24 24 25 25 25 25 25 25 23 22 22 21 20 19 18 17 17 13 10 8 6 4 3 1 2 1 1 1 1 3 3 2 4 4 4 3 3 4 4 4 5 4 4 6 9 10 10 11 11 11 11 13 14 13 13 14 15 16 17 18 18 18 19 20 22 23 22 21 21 19 15 13
21 21 22 23 24 26 26 22 18 18 21 23 24 24 24 25 26 26 26 24 23 22 20 20 20 17 14 13 14 14 14 12 10 6 4 4 1 2 2 2 2 2 2 2 2 3 3 4 4 4 5 5 4 4 3 3 5 7 7 9 9 8 9 9 10 12 13 13 12 11 11 12 14 15 17 18 19 20 23 23 22 22 22 18 15
22 23 24 25 28 27 23 18 16 19 22 24 24 25 25 27 27 26 24 22 21 20 19 19 19 16 13 11 12 14 14 13 10 7 5 4 2 2 3 3 1 2 2 2 4 3 2 3 5 5 4 4 4 3 3 4 5 6 6 8 8 7 8 10 10 10 11 12 12 11 10 9 10 11 12 14 15 16 19 22 23 22 23 21 19
24 25 28 31 31 25 18 15 18 22 24 25 26 26 26 27 26 23 22 21 20 19 19 18 18 18 16 14 12 14 15 14 12 9 6 4 3 2 3 3 2 1 2 2 3 3 4 7 7 4 2 2 2 2 2 4 4 6 6 6 6 6 7 9 9 8 8 8 9 9 9 9 10 10 10 11 12 12 14 18 22 22 22 22 21
26 28 32 33 27 18 14 17 21 23 25 26 26 27 26 25 24 22 20 20 20 20 20 20 19 19 17 14 12 13 14 13 11 9 7 5 4 3 3 4 4 3 3 3 3 3 5 7 5 2 2 2 2 1 1 1 2 3 4 3 3 5 7 8 9 10 8 7 7 6 6 6 7 7 8 9 11 11 11 12 15 18 19 18 17
27 31 34 28 18 13 17 21 22 23 25 25 25 26 25 24 22 21 19 19 19 19 19 18 18 18 16 13 12 12 12 9 7 6 5 4 3 4 4 4 4 3 3 4 4 4 5 5 3 3 4 4 4 4 4 5 6 6 6 7 7 7 8 8 9 9 9 9 9 8 7 7 6 6 6 7 8 9 9 8 9 12 15 16 16
27 30 27 19 15 19 22 23 23 23 24 25 24 24 23 22 21 20 19 18 17 17 16 16 16 15 13 11 10 9 8 5 3 2 4 3 2 3 3 4 4 5 5 4 3 4 4 4 4 4 4 5 6 7 7 9 9 9 9 9 8 7 6 6 6 6 6 7 7 8 8 8 8 8 8 8 8 8 8 8 8 9 10 13 14
24 24 21 18 21 24 24 24 24 24 24 24 23 22 21 20 19 18 17 16 17 16 15 15 15 13 10 9 8 5 4 1 2 1 4 4 3 3 4 4 4 5 6 4 3 4 4 3 3 4 4 4 3 3 4 5 5 5 4 3 2 2 3 3 3 4 6 5 5 5 5 5 7 8 8 8 8 8 8 8 7 7 7 8 9
24 25 22 21 23 24 25 25 23 22 22 21 20 20 19 18 17 17 16 15 16 15 14 14 14 12 8 8 7 4 3 2 2 1 2 4 4 3 3 4 3 4 4 4 3 3 3 3 3 3 2 2 2 3 4 4 4 4 4 3 2 3 4 5 5 5 6 5 3 3 3 3 6 7 7 8 8 6 5 5 5 5 6 6 6
26 25 22 22 22 23 24 23 21 20 19 18 18 18 17 17 17 17 15 14 14 14 14 13 13 10 8 8 7 4 2 2 4 3 2 3 3 2 3 3 3 2 3 4 4 4 5 4 3 2 2 2 2 2 3 3 3 3 3 2 3 4 5 6 6 6 6 6 5 5 4 5 6 7 7 7 8 6 4 4 5 4 3 3 3
24 22 22 22 22 22 22 21 18 17 16 16 16 17 16 16 17 16 15 14 14 13 11 10 10 9 8 6 3 3 2 4 5 5 4 4 3 3 3 2 2 2 3 5 6 5 3 2 1 1 1 1 1 1 1 2 3 4 4 3 3 4 4 5 6 7 7 7 7 7 6 5 6 7 7 7 7 6 5 4 5 6 6 5 4
22 22 23 21 19 19 19 17 13 13 14 14 15 16 16 17 17 18 17 15 14 14 12 10 8 6 4 3 0 1 1 1 3 5 4 3 2 2 2 2 3 4 4 4 4 2 0 2 2 1 0 0 1 1 1 3 6 7 5 3 2 2 3 4 4 5 7 8 8 8 7 6 5 5 6 7 6 5 6 5 4 5 6 5 4
23 23 22 19 17 17 17 14 11 11 13 13 14 16 17 16 16 18 18 15 12 11 12 12 9 6 6 6 5 3 2 1 3 3 2 1 1 2 2 2 3 4 4 2 1 2 2 2 2 1 1 1 1 2 2 3 5 5 4 3 3 4 4 5 5 5 7 9 8 7 7 7 6 5 5 6 5 4 5 5 4 3 3 3 2
22 21 20 18 16 16 16 14 13 13 13 13 14 16 17 16 15 15 15 14 12 10 10 11 11 8 7 8 7 5 4 3 2 1 2 2 0 1 2 2 3 4 5 6 6 6 5 5 5 4 4 4 3 2 2 2 3 4 4 4 4 5 5 6 5 5 6 7 7 7 7 7 6 6 6 6 6 5 4 3 3 2 2 1 1
21 20 19 17 16 16 15 14 13 13 13 13 13 13 14 16 15 12 10 10 10 10 9 9 7 4 1 3 5 5 4 4 4 3 3 3 2 2 4 5 5 4 4 5 5 5 4 4 4 3 5 5 5 4 3 3 3 4 4 4 5 7 7 7 7 6 6 6 6 7 7 7 7 7 7 7 8 6 5 4 3 3 3 3 2
22 20 18 17 15 15 14 13 13 13 12 12 11 11 12 13 13 13 11 8 8 8 9 8 6 3 1 3 2 3 3 2 3 5 5 4 5 6 5 4 3 4 5 5 4 4 3 3 3 2 2 3 4 4 5 5 5 5 5 4 6 8 9 9 8 7 7 8 8 8 8 8 8 8 7 6 7 6 4 4 4 3 3 3 2
21 19 17 16 16 15 13 13 13 13 12 12 11 12 12 12 11 12 12 11 9 8 8 8 9 10 9 8 7 6 6 5 7 9 9 8 6 4 3 4 5 5 5 5 5 5 5 4 4 5 5 4 4 5 5 6 6 7 6 5 6 8 9 9 8 7 8 9 9 8 8 9 8 8 7 7 6 6 5 4 4 4 3 3 2
20 18 17 15 15 14 12 12 12 13 14 13 12 12 12 11 11 11 11 11 11 11 10 9 10 12 13 13 12 12 12 12 13 13 10 8 6 7 7 6 5 6 6 7 7 8 8 7 6 6 7 7 7 7 6 6 6 7 7 7 7 8 8 8 8 8 8 9 9 9 8 9 9 8 8 8 8 7 6 5 4 4 4 3 3
20 19 17 15 14 13 12 13 14 15 15 15 13 13 13 13 13 13 12 12 12 13 13 11 10 11 12 11 11 11 11 11 11 9 6 5 8 11 11 10 9 8 8 8 8 8 9 9 9 8 7 7 8 8 8 7 7 7 8 7 8 8 7 8 9 9 9 9 10 10 9 9 9 8 8 8 7 6 6 6 5 5 4 3 3
22 21 19 17 16 15 16 16 17 17 17 17 16 16 15 15 14 14 13 13 13 13 13 12 10 11 12 10 9 9 9 8 8 7 6 6 9 11 11 11 10 9 9 9 9 9 9 9 9 9 8 7 8 8 9 9 8 8 8 8 8 9 9 9 10 10 10 10 10 10 9 9 9 9 8 8 6 5 6 6 5 5 4 3 3
21 20 20 19 19 18 18 18 18 17 17 17 17 16 15 15 14 13 14 13 13 13 13 13 11 11 11 10 8 8 7 7 8 9 9 10 10 10 10 10 10 10 10 9 9 9 9 9 9 9 9 9 8 9 9 9 10 11 10 10 10 10 11 12 11 10 10 10 9 9 8 8 8 8 8 8 8 7 7 7 7 6 5 3 2
19 20 20 20 19 19 19 18 18 18 18 17 17 16 15 15 14 14 14 14 14 14 13 13 12 11 11 10 9 8 7 6 7 8 10 10 9 8 9 11 11 11 11 10 9 9 10 10 9 10 11 10 10 10 10 10 11 11 12 12 11 11 12 12 12 11 10 9 9 8 8 8 8 8 8 9 8 7 8 8 7 6 5 4 3
19 20 21 20 20 20 19 19 19 19 19 18 17 16 16 16 15 15 14 14 14 14 13 13 13 12 10 10 10 9 8 7 7 8 9 9 8 8 10 11 11 11 12 12 11 11 11 11 10 11 11 12 11 11 11 11 11 12 12 13 12 11 11 11 11 11 10 10 10 10 10 9 9 9 9 8 7 7 7 7 6 5 5 5 4
20 21 21 21 21 21 20 20 19 19 19 18 17 17 16 16 16 15 15 15 14 14 13 14 13 12 10 11 12 11 10 9 8 9 10 10 10 11 11 11 12 12 12 13 12 12 11 11 10 10 11 12 12 12 12 12 13 13 13 13 12 12 11 10 11 12 12 11 10 10 10 9 9 8 8 8 7 7 6 6 5 5 5 4 4
20 21 22 23 23 21 20 20 19 19 18 18 18 18 18 17 17 16 16 16 15 15 14 15 14 12 11 11 11 10 11 11 11 11 11 11 12 13 12 11 11 11 12 12 12 11 11 11 11 11 11 12 12 13 13 13 14 14 14 13 13 14 14 13 12 13 13 12 11 10 10 9 9 9 8 8 8 7 6 5 5 5 5 5 5
21 23 25 25 23 21 20 20 19 19 19 18 18 18 17 17 17 17 16 16 16 16 16 16 15 13 12 13 12 11 11 13 13 13 13 12 12 13 12 11 10 11 11 11 11 11 11 11 11 11 11 12 13 13 14 14 14 14 15 14 13 13 14 14 13 13 14 13 12 11 11 10 10 10 9 8 8 8 7 7 7 6 6 6 5
26 27 27 25 23 21 21 19 19 19 19 19 19 18 18 18 18 17 17 17 17 18 17 17 16 14 13 14 14 14 14 14 14 14 14 14 14 13 12 10 10 11 11 12 12 12 12 12 12 12 12 12 12 12 12 13 13 14 15 16 14 12 12 13 12 13 14 14 13 13 12 11 10 9 9 9 8 8 8 8 7 7 6 6 5
29 30 29 26 23 21 20 19 19 19 19 19 19 19 18 18 19 18 18 18 18 18 17 17 16 15 15 15 15 15 15 15 15 15 15 14 14 14 12 11 11 11 11 13 14 14 13 13 13 13 14 14 14 13 13 14 14 14 14 15 15 14 12 11 11 11 13 14 13 12 12 12 11 10 10 9 8 8 8 7 7 7 7 7 7
31 30 27 25 22 21 20 19 18 18 18 18 18 18 17 17 17 17 18 18 17 17 17 16 16 16 16 16 16 16 15 15 15 16 16 15 14 14 13 12 12 12 12 13 14 14 13 14 15 15 16 15 15 15 15 15 15 14 13 13 14 14 14 12 11 11 12 13 12 10 10 11 11 11 11 9 8 8 8 8 7 8 7 7 7
31 28 24 22 21 20 20 19 19 18 19 18 18 18 18 18 17 17 17 16 16 16 16 16 16 16 16 17 17 17 16 15 14 15 15 15 15 15 13 12 14 14 13 13 14 14 13 15 16 16 16 16 15 16 16 16 15 14 13 13 12 12 13 12 12 12 12 13 13 12 11 11 12 12 12 11 10 9 8 7 7 6 5 5 6
28 24 21 20 19 19 19 19 19 19 19 18 18 18 18 18 17 17 17 16 16 17 17 17 17 16 16 17 17 17 16 16 15 14 14 15 16 15 14 13 15 15 14 14 15 14 14 16 17 17 16 16 15 15 16 16 14 13 13 12 11 11 12 12 12 11 12 14 15 14 13 13 12 12 12 12 11 9 8 7 6 5 5 5 6
24 21 19 19 18 18 19 19 19 19 19 19 19 19 18 17 17 17 16 16 16 16 16 16 16 15 15 16 16 16 16 16 16 15 15 15 16 16 15 15 16 17 16 16 16 15 15 17 18 17 15 15 15 15 15 15 14 12 12 11 10 10 11 12 12 11 13 16 17 16 15 14 13 11 10 9 8 8 7 6 6 6 6 6 7
20 19 19 19 18 18 19 19 19 19 19 19 19 19 18 18 17 16 16 16 16 15 15 15 14 14 14 14 15 15 16 16 16 16 15 15 16 16 15 16 18 19 18 16 15 14 15 18 19 18 16 15 15 15 15 14 13 11 10 9 9 11 12 12 12 12 14 16 16 16 15 14 13 11 9 7 6 5 5 4 4 5 5 6 8
19 18 18 19 19 19 18 18 18 18 18 18 19 19 19 18 17 16 16 16 15 15 14 14 14 13 13 13 14 15 16 16 16 16 16 16 17 17 16 16 18 19 19 17 15 14 16 19 20 19 17 16 16 16 15 13 12 10 9 9 11 12 13 13 14 14 14 15 14 14 13 12 11 9 7 6 4 3 3 2 3 5 6 7 9
Wind_Direction
337 339 340 340 340 341 340 340 339 336 335 336 335 335 336 336 338 339 339 339 340 339 338 335 332 330 326 316 298 275 258 249 243 237 232 231 229 228 227 225 223 223 224 222 221 221 221 221 223 223 222 221 221 222 222 224 225 224 224 223 222 223 220 216 223 227 214 218 226 222 217 217 216 218 219 220 221 222 226 231 233 234 235 235 235
333 334 335 336 337 338 337 336 336 335 333 334 334 334 334 334 335 336 337 338 338 337 337 335 331 328 325 322 315 295 272 258 249 240 233 229 227 225 224 222 221 221 221 221 220 219 219 220 221 222 220 219 219 219 220 221 222 222 222 222 222 222 221 219 221 225 217 217 222 224 215 211 212 216 217 217 219 219 222 226 230 233 235 236 236
329 330 330 331 332 333 333 332 332 333 333 332 332 332 332 333 333 333 334 336 336 336 336 333 331 330 325 322 321 314 294 273 259 250 241 234 228 225 222 220 219 219 218 217 216 214 214 215 216 216 214 215 216 217 218 219 219 219 218 219 220 220 221 223 223 223 220 218 221 224 223 214 210 213 216 218 219 219 220 224 227 231 234 235 236
325 326 326 326 328 329 330 330 330 330 332 331 330 330 330 330 331 331 331 332 333 335 335 333 332 331 329 323 320 320 314 296 274 258 250 243 237 233 229 223 220 218 217 215 214 213 212 212 213 213 211 211 214 215 217 218 218 219 218 218 220 222 222 223 226 226 223 219 218 219 223 220 212 210 212 215 218 220 221 224 226 229 231 232 234
322 323 323 322 324 326 326 327 328 328 329 329 328 328 328 328 329 329 329 328 329 331 332 333 333 332 329 325 320 317 315 311 298 273 256 248 243 240 237 234 229 226 222 218 216 215 214 213 213 212 211 211 212 213 214 215 216 217 218 218 218 220 220 220 223 225 224 221 218 215 219 221 213 208 208 210 213 217 220 223 226 228 229 230 232
318 319 320 320 322 323 323 324 325 326 326 325 326 327 326 325 325 326 326 326 325 326 327 329 331 331 327 325 322 317 311 308 306 295 270 252 245 241 239 238 235 232 229 226 223 220 218 216 214 213 212 212 211 212 212 213 214 214 215 215 214 215 217 219 221 224 227 227 224 219 219 220 215 208 208 211 213 213 215 219 224 227 226 227 228
314 315 315 317 319 319 319 320 322 322 321 321 323 324 323 322 321 322 323 323 322 323 322 323 325 326 326 325 322 319 316 311 304 296 282 261 247 240 237 237 234 231 229 228 226 224 222 220 218 216 216 216 215 214 214 214 215 216 216 215 215 216 218 221 222 225 228 229 226 222 221 223 223 220 218 217 218 217 213 209 212 218 222 225 226
310 312 312 314 315 315 316 319 320 317 315 317 320 322 322 319 317 318 318 319 320 319 318 318 319 320 322 324 322 320 318 316 313 304 290 274 258 243 234 231 230 228 226 224 224 223 223 222 221 220 220 221 220 219 219 218 217 217 219 218 217 216 217 219 219 221 223 224 225 224 223 225 228 230 229 218 212 212 211 207 207 212 216 221 226
306 309 310 310 309 310 312 316 316 313 310 312 316 320 320 317 316 315 314 315 317 315 314 315 314 314 316 319 321 321 319 317 320 318 307 293 276 258 241 230 226 222 219 218 218 218 219 219 219 220 221 222 223 222 223 223 221 219 217 215 214 213 213 213 213 215 217 220 224 223 222 224 226 225 224 219 213 209 208 210 213 214 216 220 225
304 306 306 306 307 307 307 310 311 309 308 308 311 316 318 316 315 313 312 312 312 312 312 311 309 309 312 314 316 319 320 318 318 316 312 304 293 276 255 241 232 227 225 222 220 220 220 220 220 221 221 222 223 224 225 225 226 225 222 218 215 212 210 210 211 213 213 216 220 217 216 222 222 219 219 222 221 215 208 208 212 212 212 217 224
299 302 303 304 306 306 304 305 306 306 305 304 307 311 313 314 312 312 312 311 309 309 308 306 305 307 307 307 311 315 313 313 318 316 308 300 293 282 269 256 240 230 227 222 220 219 219 221 222 222 222 223 224 227 228 227 227 227 226 224 221 217 214 211 211 211 211 214 218 214 214 222 222 219 221 224 224 219 212 210 210 205 200 205 218
295 298 301 303 306 306 304 303 303 302 301 300 302 305 309 310 309 309 310 309 307 305 303 302 302 303 301 298 303 309 303 304 317 319 320 327 311 267 250 252 238 229 228 223 219 216 214 216 220 220 222 224 227 229 230 229 229 228 226 225 224 224 222 219 216 213 211 212 215 214 216 223 224 222 222 222 221 220 215 212 211 208 204 207 214
293 297 301 303 305 306 305 303 301 300 299 298 297 300 306 307 305 306 307 308 306 302 299 299 298 298 296 293 298 302 294 296 313 315 329 358 356 335 312 264 210 199 203 211 215 215 214 214 216 220 224 224 225 227 228 227 226 226 226 225 225 226 226 225 224 221 217 214 215 218 219 221 223 223 223 220 218 214 210 208 209 210 210 215 222
296 298 300 302 303 303 303 302 301 301 301 299 296 297 303 305 302 302 304 305 304 300 296 295 295 295 294 292 297 298 287 287 305 305 317 344 341 326 326 331 208 177 172 179 190 196 202 202 197 207 219 220 220 221 224 224 222 220 220 221 223 224 225 226 226 226 224 221 220 223 223 222 224 226 223 221 220 217 211 207 208 211 216 222 230
296 299 301 302 303 303 303 302 301 301 301 300 297 296 300 301 299 299 302 302 300 296 293 292 291 291 291 291 293 293 287 285 297 300 303 322 340 334 322 320 315 226 175 177 185 182 188 192 183 184 197 204 211 217 220 221 219 219 220 220 222 222 222 223 223 223 225 225 227 229 227 226 228 229 226 224 225 226 222 218 217 217 220 225 231
294 299 300 301 302 302 302 299 296 298 303 303 298 295 296 297 297 298 299 298 296 292 289 288 287 287 289 287 286 288 286 280 287 303 309 296 318 19 355 345 360 39 110 138 174 178 185 187 180 183 192 193 196 203 214 219 217 217 219 220 223 225 225 225 222 221 224 227 230 233 232 231 230 231 233 229 226 226 225 222 220 216 216 222 230
291 294 296 296 298 299 299 296 292 298 305 304 297 292 293 294 294 296 297 296 294 290 286 286 286 286 285 281 280 283 281 269 272 292 319 306 228 147 24 26 23 42 90 103 111 125 148 172 181 190 192 187 180 172 187 212 214 213 213 215 218 222 226 228 222 219 225 229 231 233 234 234 232 231 234 232 230 230 225 218 215 210 210 216 224
288 289 291 292 294 297 296 291 289 299 305 302 294 290 290 291 292 294 295 292 289 286 284 286 287 286 282 278 278 279 274 264 259 269 307 330 223 203 201 90 81 90 99 95 95 104 110 127 156 169 156 145 149 157 171 196 201 202 204 204 205 206 209 215 214 212 216 221 225 226 227 229 227 226 228 228 228 228 224 222 218 210 209 214 218
288 290 291 292 294 295 290 284 287 301 305 298 290 286 287 289 291 292 291 288 285 283 283 286 288 287 284 280 280 280 277 271 264 265 297 325 291 212 208 153 124 142 137 124 131 122 100 100 108 110 114 110 102 114 125 135 163 183 192 192 194 196 198 204 205 204 207 212 217 220 219 219 218 218 220 221 221 221 223 226 223 213 211 215 214
293 296 296 297 297 291 283 278 290 303 303 296 289 286 287 289 290 290 288 285 282 281 281 284 287 286 283 283 283 282 281 279 274 272 284 299 296 248 213 190 128 118 135 137 143 139 113 126 126 110 105 104 94 95 91 100 137 164 176 183 190 195 202 208 207 205 212 218 224 231 234 231 226 222 219 217 218 219 220 222 222 217 216 217 212
299 301 302 301 295 285 277 285 298 301 298 293 288 286 288 288 287 286 286 283 280 280 280 281 284 284 281 279 277 275 277 281 280 274 272 276 280 264 215 205 208 188 155 130 133 133 122 132 139 132 118 109 90 95 82 69 105 148 159 170 188 200 202 203 200 201 210 216 219 226 233 238 241 242 239 234 231 231 227 222 221 221 220 218 214
303 305 304 298 289 282 290 302 302 298 293 289 286 286 287 286 284 282 282 280 277 278 279 280 281 283 282 277 272 268 272 281 283 271 260 255 251 240 211 202 212 218 193 141 119 112 111 120 127 104 64 59 47 68 112 59 76 146 166 164 177 195 197 191 186 193 205 211 210 211 215 222 231 238 244 246 244 244 240 229 221 220 221 221 219
305 306 300 292 288 301 310 308 302 295 290 286 285 286 286 283 281 280 279 277 275 275 278 279 277 277 280 282 276 263 261 275 287 266 240 225 220 220 207 195 194 193 176 144 118 111 113 114 103 60 58 73 73 76 102 118 107 105 115 118 119 136 154 158 164 178 188 191 194 196 195 199 204 208 217 222 223 226 227 224 220 218 219 224 227
307 306 299 296 310 318 315 309 302 293 287 285 285 284 283 281 279 279 276 274 273 272 274 277 277 272 273 283 279 253 242 272 300 234 199 190 191 192 180 171 163 156 156 152 133 123 117 106 90 73 77 92 88 81 93 108 110 111 119 123 124 127 132 130 132 148 158 159 168 177 181 185 187 187 189 187 182 188 201 213 223 222 220 226 233
310 309 305 310 317 316 313 308 299 289 284 284 283 280 279 278 277 277 275 271 270 269 268 273 278 272 268 283 281 230 199 254 321 210 186 178 164 149 139 128 123 138 150 158 154 136 113 95 93 90 89 94 98 118 134 135 142 158 158 154 165 174 170 164 147 143 145 138 136 150 161 173 177 177 181 181 175 177 190 203 221 239 247 254 255
314 309 304 306 310 311 309 302 293 286 284 284 281 277 276 277 276 274 274 271 271 271 267 269 277 277 271 277 269 213 165 200 243 222 174 166 160 149 142 128 119 144 161 157 145 131 114 105 107 105 112 125 156 186 199 211 225 231 244 255 231 202 196 196 186 166 162 162 155 150 155 172 178 180 188 193 189 187 191 200 220 253 273 283 287
315 309 305 304 306 307 303 295 287 286 286 285 283 278 275 276 275 272 272 272 271 273 270 267 272 275 270 267 253 210 167 221 218 197 138 153 160 135 128 133 123 130 157 153 141 134 125 115 105 107 134 174 201 213 233 256 262 251 245 225 195 180 181 188 186 179 174 172 170 164 157 158 165 171 178 186 190 200 220 222 216 219 232 245 258
315 312 308 305 304 303 298 290 284 286 287 285 284 282 278 278 276 272 270 270 272 277 278 273 271 268 267 271 250 187 214 241 214 181 149 154 165 140 132 165 163 127 141 152 154 153 142 98 66 112 141 175 196 206 230 192 168 169 174 184 193 196 200 204 204 203 201 197 194 191 183 169 158 163 173 177 182 200 221 225 216 217 224 232 242
318 314 310 304 302 303 300 292 284 285 286 284 284 285 284 282 278 274 272 268 268 272 276 276 276 273 277 290 297 132 300 277 170 163 160 169 193 196 202 211 190 167 156 144 141 154 280 352 13 60 100 196 174 186 205 171 168 173 179 182 181 174 179 188 192 195 199 201 200 201 203 200 185 177 184 184 182 200 218 217 209 214 225 235 251
319 314 310 304 303 308 307 301 295 293 289 285 288 291 291 287 281 277 276 272 266 264 266 264 259 255 262 260 239 223 252 169 128 138 176 236 240 215 207 187 158 168 181 191 244 274 278 290 293 273 234 195 165 170 178 162 158 160 159 155 146 133 137 152 162 166 169 172 174 178 186 193 191 183 186 188 185 195 217 225 229 235 242 249 255
317 312 310 305 305 310 308 301 297 296 290 285 289 293 296 298 296 285 274 267 264 265 265 260 258 260 259 241 217 202 210 210 189 260 283 279 254 156 188 245 258 248 247 248 250 253 255 253 249 229 201 195 194 182 182 177 154 141 136 143 158 165 164 163 166 170 170 170 172 173 172 174 174 168 168 175 175 169 172 189 214 236 243 234 223
314 310 309 308 308 309 307 301 295 290 284 283 286 291 295 301 307 305 286 263 261 268 267 265 277 310 15 170 185 197 215 232 248 260 256 258 267 261 261 269 266 245 223 211 209 215 227 235 229 192 169 181 195 196 189 188 180 167 156 150 162 179 187 179 166 163 166 168 171 172 168 166 166 163 160 164 169 167 160 158 163 171 179 180 172
317 311 310 309 309 308 307 304 297 289 284 282 283 290 293 294 300 306 302 284 272 271 270 270 279 289 129 128 154 190 199 212 220 215 218 247 282 288 274 244 193 171 171 176 187 207 226 232 224 207 176 174 187 196 199 198 194 191 190 181 174 179 186 184 176 169 164 162 162 165 169 172 170 167 165 168 175 176 170 169 176 176 176 185 189
320 313 310 307 305 304 305 302 297 293 290 285 280 283 287 286 286 292 296 295 290 282 274 269 267 260 253 249 243 233 226 229 231 236 249 270 282 271 220 180 176 194 211 213 210 217 229 238 237 238 242 232 214 202 199 200 199 195 194 192 184 180 180 182 184 183 179 175 172 168 171 176 176 172 168 166 171 177 175 171 179 182 174 172 179
317 312 310 304 300 300 300 300 299 297 293 288 281 278 278 278 276 276 279 284 286 283 277 272 271 269 267 264 261 255 250 248 250 255 263 264 245 221 207 203 212 230 244 251 247 238 235 240 246 245 241 237 230 220 209 203 200 196 194 191 187 185 186 186 183 178 178 184 183 175 170 173 175 174 172 167 164 166 164 158 161 168 169 171 179
313 308 304 300 297 296 297 299 301 299 295 288 282 277 275 274 271 268 266 268 271 273 274 274 272 272 274 273 266 259 254 254 253 251 247 238 229 225 225 231 240 248 251 250 246 239 234 234 237 234 226 222 221 218 213 210 204 196 194 193 188 185 184 183 181 177 172 174 177 176 173 173 173 173 175 176 174 172 169 166 163 166 175 186 192
310 303 297 293 290 289 293 298 301 300 296 289 283 279 277 273 267 261 258 258 260 263 266 268 266 267 272 274 261 248 249 250 239 220 209 221 231 231 230 234 238 239 234 227 226 231 235 235 235 233 228 223 219 215 213 213 207 198 193 189 185 180 176 174 179 182 179 174 173 174 175 175 176 176 172 169 168 173 180 182 176 168 175 199 215
311 305 299 295 289 286 289 295 298 300 297 292 286 280 275 270 263 255 252 253 255 257 259 261 259 259 264 266 255 243 246 244 226 213 214 224 233 234 229 224 221 216 214 217 225 230 228 225 224 222 217 215 212 209 206 206 203 198 193 186 181 180 178 174 171 174 177 178 175 176 178 179 181 184 181 171 163 161 166 173 174 170 168 176 204
315 311 306 302 297 292 291 292 294 295 294 293 287 278 271 265 259 253 251 252 252 253 254 255 254 255 257 255 244 235 236 237 228 216 211 217 224 221 210 208 215 216 213 211 214 214 210 208 211 212 209 206 204 201 199 199 200 200 198 192 186 184 184 182 178 174 173 174 173 171 173 174 173 176 178 176 173 170 168 169 173 179 186 191 196
318 315 310 307 303 298 293 290 287 287 289 289 286 278 271 265 258 254 253 251 249 249 250 251 251 252 248 240 234 232 233 229 218 207 203 205 210 210 206 205 209 211 209 208 209 209 206 205 209 211 207 204 202 199 195 193 192 191 191 191 190 188 188 189 187 180 174 172 171 168 168 170 171 170 170 170 173 178 181 182 183 188 200 211 221
320 317 312 309 304 299 295 290 286 285 286 285 281 276 271 266 263 260 256 252 250 250 252 253 254 253 246 238 235 235 235 228 212 205 209 211 207 206 208 208 205 204 205 208 211 213 210 207 207 208 205 202 200 197 192 189 188 184 182 183 184 181 176 174 174 173 171 170 171 174 176 178 176 169 165 170 178 181 182 187 190 193 205 221 235
321 318 315 311 305 298 294 292 288 287 287 284 280 276 271 268 267 263 257 255 255 255 256 257 257 255 250 242 234 228 231 229 219 211 214 216 211 210 211 211 208 208 209 209 211 214 211 206 203 204 203 202 199 195 190 188 187 184 180 179 180 178 174 170 168 172 173 172 173 178 181 179 173 167 165 171 180 182 179 182 191 202 214 225 235
324 321 316 310 302 294 291 290 289 288 286 284 282 280 274 270 266 262 258 257 256 255 256 258 258 256 252 246 238 233 234 232 225 218 216 217 218 222 223 220 215 215 214 211 211 212 211 206 202 201 202 201 199 197 193 190 187 184 181 180 180 182 185 186 184 183 182 181 180 181 181 177 175 178 183 183 183 184 187 192 201 211 218 226 238
326 323 315 308 300 294 291 290 290 289 288 285 283 281 277 273 268 262 258 258 257 255 256 257 255 253 249 243 240 240 240 236 229 225 223 224 227 231 230 224 220 218 213 207 206 207 208 205 199 198 200 199 198 197 194 191 189 187 185 185 183 182 186 192 193 191 190 190 189 187 185 181 178 180 187 192 192 194 197 201 209 213 214 218 231
325 320 313 305 298 294 292 292 292 292 291 288 285 281 278 276 271 264 259 258 257 256 256 254 252 248 243 239 239 242 244 242 235 231 230 232 233 233 229 222 219 219 214 209 208 209 205 198 194 195 197 195 193 191 188 186 187 187 188 190 190 187 187 192 194 191 189 191 192 191 190 190 188 186 188 193 199 198 194 193 200 206 208 218 232
322 316 309 302 297 295 295 296 296 295 294 291 287 284 282 279 274 267 261 258 255 253 252 252 249 244 240 238 238 242 245 245 239 232 230 231 232 234 230 219 213 218 220 216 214 213 205 196 194 197 196 193 191 189 187 187 187 187 189 192 194 193 194 196 198 193 189 191 193 189 184 184 184 185 187 188 188 188 187 189 199 209 218 231 246
320 314 306 300 299 300 302 303 303 301 298 294 289 286 283 280 277 273 268 263 258 254 252 250 247 243 240 238 238 239 242 243 240 234 230 229 230 235 232 217 212 219 223 217 214 214 206 197 197 201 201 199 197 194 193 193 194 194 196 200 202 202 203 204 205 205 201 198 194 190 184 180 178 180 184 184 181 184 193 200 210 223 237 249 259
318 311 305 304 306 309 310 309 307 305 303 301 298 294 289 284 279 275 272 270 266 262 257 254 251 247 243 240 239 239 240 241 240 238 234 230 232 235 232 219 214 219 220 213 211 211 205 198 201 205 204 203 202 199 198 200 202 202 204 208 210 211 211 210 209 205 196 190 187 183 181 181 179 181 187 190 189 194 203 205 210 224 238 245 255
314 310 309 312 314 313 311 310 308 305 304 304 303 301 299 295 288 282 278 275 272 267 263 260 258 253 247 243 241 240 238 238 239 238 236 233 234 235 231 221 216 218 219 216 213 211 203 199 202 206 204 203 202 201 201 203 204 207 210 213 212 209 206 203 199 191 182 181 182 179 175 176 177 180 187 193 195 201 209 212 221 237 246 253 263
313 313 315 317 316 313 310 309 307 305 305 306 305 303 302 301 297 292 288 282 275 269 265 263 261 257 251 244 241 238 236 236 237 237 234 232 233 235 231 222 216 218 221 221 217 211 203 200 203 205 204 201 200 201 203 205 206 209 213 211 203 196 190 185 181 175 173 176 180 179 178 180 183 185 190 195 199 203 209 216 236 255 264 270 278
316 317 318 317 316 314 312 310 309 308 308 308 306 305 305 303 301 298 295 290 284 277 270 265 262 259 254 248 243 240 238 237 238 238 234 230 231 233 233 227 220 218 219 219 218 211 204 202 205 206 204 201 201 202 204 205 207 211 214 205 193 187 182 177 174 172 171 172 175 177 180 183 184 183 186 192 197 206 225 250 268 277 281 283 287